TimeCDT,TemperatureF,Dew PointF,Humidity,Sea Level PressureIn,VisibilityMPH,Wind Direction,Wind SpeedMPH,Gust SpeedMPH,PrecipitationIn,Events,Conditions,WindDirDegrees,DateUTC
12:55 AM,46.9,41.0,80,29.99,10.0,Calm,Calm,-,N/A,,Clear,0,2012-10-22 05:55:00
1:55 AM,46.9,41.0,80,29.99,10.0,NE,3.5,-,N/A,,Partly Cloudy,40,2012-10-22 06:55:00
2:55 AM,45.0,39.9,82,30.00,10.0,North,4.6,-,N/A,,Partly Cloudy,360,2012-10-22 07:55:00
3:55 AM,46.0,42.1,86,30.01,10.0,North,6.9,-,N/A,,Clear,350,2012-10-22 08:55:00
4:55 AM,46.9,43.0,86,30.02,10.0,North,6.9,-,N/A,,Clear,360,2012-10-22 09:55:00
5:18 AM,46.4,44.6,93,29.99,10.0,North,10.4,-,N/A,,Scattered Clouds,10,2012-10-22 10:18:00
5:27 AM,48.2,44.6,87,29.99,10.0,North,9.2,-,N/A,,Mostly Cloudy,10,2012-10-22 10:27:00
5:55 AM,48.0,45.0,89,30.02,10.0,North,11.5,-,N/A,,Overcast,360,2012-10-22 10:55:00
6:55 AM,48.9,45.0,86,30.04,10.0,NNE,6.9,-,N/A,,Overcast,30,2012-10-22 11:55:00
7:55 AM,48.9,44.1,83,30.06,10.0,NE,11.5,-,N/A,,Overcast,40,2012-10-22 12:55:00
8:55 AM,48.9,45.0,86,30.08,10.0,NE,5.8,-,N/A,,Overcast,50,2012-10-22 13:55:00
9:11 AM,48.2,44.6,87,30.06,10.0,ENE,12.7,-,N/A,,Overcast,60,2012-10-22 14:11:00
9:55 AM,50.0,44.1,80,30.10,10.0,East,8.1,-,N/A,,Overcast,80,2012-10-22 14:55:00
10:55 AM,50.0,44.1,80,30.11,10.0,East,12.7,19.6,N/A,,Overcast,80,2012-10-22 15:55:00
11:55 AM,50.0,43.0,77,30.10,10.0,ENE,16.1,21.9,N/A,,Overcast,70,2012-10-22 16:55:00
12:23 PM,51.8,42.8,71,30.07,10.0,East,13.8,-,N/A,,Overcast,80,2012-10-22 17:23:00
12:55 PM,51.1,42.1,71,30.09,10.0,ENE,17.3,20.7,N/A,,Overcast,70,2012-10-22 17:55:00
1:27 PM,50.0,42.8,76,30.06,10.0,East,18.4,24.2,N/A,,Overcast,90,2012-10-22 18:27:00
1:55 PM,50.0,42.1,74,30.08,10.0,East,15.0,21.9,N/A,,Overcast,80,2012-10-22 18:55:00
2:55 PM,48.9,42.1,77,30.08,10.0,ENE,17.3,21.9,N/A,,Overcast,70,2012-10-22 19:55:00
3:55 PM,48.9,42.1,77,30.07,10.0,East,16.1,25.3,N/A,,Overcast,80,2012-10-22 20:55:00
4:47 PM,48.2,41.0,76,30.02,10.0,East,16.1,-,N/A,,Overcast,80,2012-10-22 21:47:00
4:55 PM,48.2,41.0,76,30.03,10.0,ENE,18.4,24.2,N/A,,Overcast,70,2012-10-22 21:55:00
5:55 PM,46.9,41.0,80,30.06,10.0,East,12.7,20.7,N/A,,Overcast,80,2012-10-22 22:55:00
6:27 PM,46.4,41.0,81,30.03,10.0,East,15.0,21.9,N/A,,Overcast,80,2012-10-22 23:27:00
6:55 PM,46.0,41.0,83,30.06,10.0,East,15.0,23.0,N/A,,Overcast,80,2012-10-22 23:55:00
7:55 PM,45.0,42.1,90,30.06,10.0,East,17.3,25.3,N/A,,Overcast,80,2012-10-23 00:55:00
8:55 PM,45.0,42.1,90,30.05,10.0,East,11.5,24.2,N/A,,Overcast,80,2012-10-23 01:55:00
9:55 PM,46.0,42.1,86,30.05,10.0,East,20.7,26.5,N/A,,Overcast,80,2012-10-23 02:55:00
10:55 PM,46.0,42.1,86,30.04,10.0,East,19.6,29.9,N/A,,Overcast,90,2012-10-23 03:55:00
11:55 PM,46.0,43.0,89,30.02,10.0,East,23.0,27.6,N/A,,Overcast,90,2012-10-23 04:55:00